Hourly Weather Roundup
Issued by NWS Central Illinois

Home | Current Version | Previous Version | Text Only | Print | Product List | Glossary On
Versions: 1 2 3 4 5 6 7 8 9 10 11 12 13 14 15 16 17 18 19 20 21 22 23 24 25 26 27 28 29 30 31 32 33 34 35 36 37 38 39 40 41 42 43 44 45 46 47 48 49 50
000
NZUS43 KILX 190810
HWRILX

Area Weather Roundup
National Weather Service Lincoln IL
300 AM CDT THU OCT 19 2017

NOTE:  "FAIR" indicates few or no clouds below 12,000 feet, with
       no sigificant weather and/or obstructions to visibility.


CITY           SKY/WX    TMP DP  RH WIND       PRES   REMARKS
Bloomington    CLEAR     54  47  77 SW12      30.10S
Champaign      CLEAR     51  46  83 S9        30.12S
Danville       CLEAR     52  46  78 SW10      30.10S
Decatur        CLEAR     55  48  77 SW9       30.12S
Effingham      CLEAR     51  47  88 CALM      30.17S
Flora          CLEAR     48  46  90 S3        30.17S
Galesburg      CLEAR     49  45  83 S3        30.08R
Jacksonville   CLEAR     56  47  72 S7        30.10S
Lacon          CLEAR     55  49  78 SW8       30.06R
Lawrenceville  CLEAR     49  45  86 S7        30.18S
Litchfield     CLEAR     51  47  86 S7        30.13S
$$


CITY           SKY/WX    TMP DP  RH WIND       PRES   REMARKS
Lincoln        CLEAR     52  49  88 S3        30.09F
Macomb         CLEAR     54  46  73 SW7       30.09S
Mattoon        CLEAR     54  48  80 S7        30.13S
Mt Carmel AP   CLEAR     51  46  83 CALM      30.18R
Olney-Noble AP CLEAR     52  50  93 S3        30.18S
Paris AP       CLEAR     54  48  81 SW10      30.15S
Peoria         CLEAR     51  47  86 S6        30.08R
Pontiac        CLEAR     55  50  82 SW9       30.08S
Rantoul        CLEAR     56  50  79 SW7       30.11S
Robinson       CLEAR     44  42  95 S3        30.18S
Springfield    CLEAR     54  48  80 S6        30.11R
Taylorville    CLEAR     53  47  81 S7        30.12S
$$

...REGIONAL REPORTS...


CITY           SKY/WX    TMP DP  RH WIND       PRES   REMARKS
Chicago O`Hare CLEAR     57  45  64 SW10      30.03S
Kankakee       CLEAR     53  46  76 SW8       30.08F
Moline         CLEAR     55  44  66 W3        30.05R
Mount Sterling CLEAR     51  45  78 S7        30.08S
Mount Vernon   CLEAR     46  46 100 CALM      30.17S
Pittsfield     CLEAR     56  48  74 S6        30.11S
Quincy         CLEAR     53  45  74 S9        30.08S
Rockford       CLEAR     55  44  66 SW5       30.06R
$$


CITY           SKY/WX    TMP DP  RH WIND       PRES   REMARKS
Burlington     CLEAR     53  46  77 SW5       30.06R
Cedar Rapids   CLEAR     50  46  86 N5        30.05R
Des Moines     CLOUDY    52  48  86 CALM      30.06R
Kirksville     CLEAR     52  49  89 SW5       30.09R
Ottumwa        CLEAR     49  46  90 SW3       30.05S
St Louis       CLEAR     57  49  74 S5        30.14R
$$


CITY           SKY/WX    TMP DP  RH WIND       PRES   REMARKS
Terre Haute    CLEAR     50  44  80 S5        30.16S
Evansville     CLEAR     50  45  83 CALM      30.20S
Indianapolis   PTCLDY    51  45  79 S7        30.18R
Lafayette      CLEAR     51  46  83 SW3       30.12F
Madison        CLOUDY    52  45  77 N3        30.03R
Milwaukee      CLOUDY    60  45  57 W9        30.00R
$$






USA.gov is the U.S. government's official web portal to all federal, state and local government web resources and services.